Time,TemperatureF,DewpointF,PressureIn,WindDirection,WindDirectionDegrees,WindSpeedMPH,WindSpeedGustMPH,Humidity,HourlyPrecipIn,Conditions,Clouds,dailyrainin,SolarRadiationWatts/m^2,SoftwareType,DateUTC
2013-12-05 00:22:00,34.0,17.0,29.98,NW,322,7.0,7.0,50,0.00,,,0.00,0.000000,,2013-12-05 08:22:00,
2013-12-05 00:32:00,34.0,17.0,29.98,NW,322,7.0,7.0,50,0.00,,,0.00,0.000000,,2013-12-05 08:32:00,
2013-12-05 00:42:00,34.0,17.0,29.98,NW,322,7.0,7.0,50,0.00,,,0.00,0.000000,,2013-12-05 08:42:00,
2013-12-05 00:52:00,34.0,17.0,29.98,NW,322,7.0,7.0,50,0.00,,,0.00,0.000000,,2013-12-05 08:52:00,
2013-12-05 01:22:00,34.0,20.0,29.97,NNW,327,8.0,12.0,55,0.00,,,0.00,0.000000,,2013-12-05 09:22:00,
2013-12-05 01:33:00,34.0,20.0,29.97,NNW,327,8.0,12.0,55,0.00,,,0.00,0.000000,,2013-12-05 09:33:00,
2013-12-05 01:43:00,34.0,20.0,29.97,NNW,327,8.0,12.0,55,0.00,,,0.00,0.000000,,2013-12-05 09:43:00,
2013-12-05 01:53:00,34.0,20.0,29.97,NNW,327,8.0,12.0,55,0.00,,,0.00,0.000000,,2013-12-05 09:53:00,
2013-12-05 02:23:00,33.0,19.0,29.98,NNE,16,3.0,11.0,56,0.00,,,0.00,0.000000,,2013-12-05 10:23:00,
2013-12-05 02:33:00,33.0,19.0,29.98,NNE,16,3.0,11.0,56,0.00,,,0.00,0.000000,,2013-12-05 10:33:00,
2013-12-05 02:43:00,33.0,19.0,29.98,NNE,16,3.0,11.0,56,0.00,,,0.00,0.000000,,2013-12-05 10:43:00,
2013-12-05 02:52:00,33.0,19.0,29.98,NNE,16,3.0,11.0,56,0.00,,,0.00,0.000000,,2013-12-05 10:52:00,
2013-12-05 03:22:00,32.0,20.0,29.97,South,177,1.0,7.0,62,0.00,,,0.00,0.000000,,2013-12-05 11:22:00,
2013-12-05 03:33:00,32.0,20.0,29.97,South,177,1.0,7.0,62,0.00,,,0.00,0.000000,,2013-12-05 11:33:00,
2013-12-05 03:42:00,32.0,20.0,29.97,South,177,1.0,7.0,62,0.00,,,0.00,0.000000,,2013-12-05 11:42:00,
2013-12-05 03:53:00,32.0,20.0,29.97,South,177,1.0,7.0,62,0.00,,,0.00,0.000000,,2013-12-05 11:53:00,
2013-12-05 04:21:00,31.0,18.0,29.97,SW,235,2.0,4.0,57,0.00,,,0.00,0.000000,,2013-12-05 12:21:00,
2013-12-05 04:32:00,31.0,18.0,29.97,SW,235,2.0,4.0,57,0.00,,,0.00,0.000000,,2013-12-05 12:32:00,
2013-12-05 04:42:00,31.0,18.0,29.97,SW,235,2.0,4.0,57,0.00,,,0.00,0.000000,,2013-12-05 12:42:00,
2013-12-05 04:52:00,31.0,18.0,29.97,SW,235,2.0,4.0,57,0.00,,,0.00,0.000000,,2013-12-05 12:52:00,
2013-12-05 05:22:00,30.0,17.0,29.98,East,94,1.0,4.0,57,0.00,,,0.00,0.000000,,2013-12-05 13:22:00,
2013-12-05 05:32:00,30.0,17.0,29.98,East,94,1.0,4.0,57,0.00,,,0.00,0.000000,,2013-12-05 13:32:00,
2013-12-05 05:42:00,30.0,17.0,29.98,East,94,1.0,4.0,57,0.00,,,0.00,0.000000,,2013-12-05 13:42:00,
2013-12-05 05:52:00,30.0,17.0,29.98,East,94,1.0,4.0,57,0.00,,,0.00,0.000000,,2013-12-05 13:52:00,
2013-12-05 06:22:00,30.0,16.0,29.99,SSE,148,2.0,4.0,56,0.00,,,0.00,0.000000,,2013-12-05 14:22:00,
2013-12-05 06:32:00,30.0,16.0,29.99,SSE,148,2.0,4.0,56,0.00,,,0.00,0.000000,,2013-12-05 14:32:00,
2013-12-05 06:42:00,30.0,16.0,29.99,SSE,148,2.0,4.0,56,0.00,,,0.00,0.000000,,2013-12-05 14:42:00,
2013-12-05 06:52:00,30.0,16.0,29.99,SSE,148,2.0,4.0,56,0.00,,,0.00,0.000000,,2013-12-05 14:52:00,
2013-12-05 07:22:00,30.0,15.0,30.01,SSW,197,2.0,5.0,54,0.00,,,0.00,1.000000,,2013-12-05 15:22:00,
2013-12-05 07:34:00,30.0,15.0,30.01,SSW,197,2.0,5.0,54,0.00,,,0.00,1.000000,,2013-12-05 15:34:00,
2013-12-05 07:43:00,30.0,15.0,30.01,SSW,197,2.0,5.0,54,0.00,,,0.00,1.000000,,2013-12-05 15:43:00,
2013-12-05 07:53:00,30.0,15.0,30.01,SSW,197,2.0,5.0,54,0.00,,,0.00,1.000000,,2013-12-05 15:53:00,
2013-12-05 08:23:00,34.0,14.0,30.02,South,189,1.0,5.0,43,0.00,,,0.00,85.000000,,2013-12-05 16:23:00,
2013-12-05 08:33:00,34.0,14.0,30.02,South,189,1.0,5.0,43,0.00,,,0.00,85.000000,,2013-12-05 16:33:00,
2013-12-05 08:43:00,34.0,14.0,30.02,South,189,1.0,5.0,43,0.00,,,0.00,85.000000,,2013-12-05 16:43:00,
2013-12-05 08:53:00,34.0,14.0,30.02,South,189,1.0,5.0,43,0.00,,,0.00,85.000000,,2013-12-05 16:53:00,
2013-12-05 09:23:00,38.0,12.0,30.06,NNE,27,5.0,5.0,34,0.00,,,0.00,317.000000,,2013-12-05 17:23:00,
2013-12-05 09:33:00,38.0,12.0,30.06,NNE,27,5.0,5.0,34,0.00,,,0.00,317.000000,,2013-12-05 17:33:00,
2013-12-05 09:42:00,38.0,12.0,30.06,NNE,27,5.0,5.0,34,0.00,,,0.00,317.000000,,2013-12-05 17:42:00,
2013-12-05 09:52:00,38.0,12.0,30.06,NNE,27,5.0,5.0,34,0.00,,,0.00,317.000000,,2013-12-05 17:52:00,
2013-12-05 10:22:00,42.0,12.0,30.06,North,2,5.0,10.0,29,0.00,,,0.00,543.000000,,2013-12-05 18:22:00,
2013-12-05 10:33:00,42.0,12.0,30.06,North,2,5.0,10.0,29,0.00,,,0.00,543.000000,,2013-12-05 18:33:00,
2013-12-05 10:42:00,42.0,12.0,30.06,North,2,5.0,10.0,29,0.00,,,0.00,543.000000,,2013-12-05 18:42:00,
2013-12-05 10:52:00,42.0,12.0,30.06,North,2,5.0,10.0,29,0.00,,,0.00,543.000000,,2013-12-05 18:52:00,
2013-12-05 11:21:00,44.0,12.0,30.06,NNW,337,6.0,10.0,27,0.00,,,0.00,688.000000,,2013-12-05 19:21:00,
2013-12-05 11:32:00,44.0,12.0,30.06,NNW,337,6.0,10.0,27,0.00,,,0.00,688.000000,,2013-12-05 19:32:00,
2013-12-05 11:42:00,44.0,12.0,30.06,NNW,337,6.0,10.0,27,0.00,,,0.00,688.000000,,2013-12-05 19:42:00,
2013-12-05 11:52:00,44.0,12.0,30.06,NNW,337,6.0,10.0,27,0.00,,,0.00,688.000000,,2013-12-05 19:52:00,
2013-12-05 12:22:00,42.0,10.0,30.03,NNE,16,6.0,12.0,26,0.00,,,0.00,761.000000,,2013-12-05 20:22:00,
2013-12-05 12:32:00,42.0,10.0,30.03,NNE,16,6.0,12.0,26,0.00,,,0.00,761.000000,,2013-12-05 20:32:00,
2013-12-05 12:42:00,42.0,10.0,30.03,NNE,16,6.0,12.0,26,0.00,,,0.00,761.000000,,2013-12-05 20:42:00,
2013-12-05 12:52:00,42.0,10.0,30.03,NNE,16,6.0,12.0,26,0.00,,,0.00,761.000000,,2013-12-05 20:52:00,
2013-12-05 13:22:00,45.0,11.0,30.02,NNE,13,5.0,13.0,25,0.00,,,0.00,755.000000,,2013-12-05 21:22:00,
2013-12-05 13:33:00,45.0,11.0,30.02,NNE,13,5.0,13.0,25,0.00,,,0.00,755.000000,,2013-12-05 21:33:00,
2013-12-05 13:44:00,45.0,11.0,30.02,NNE,13,5.0,13.0,25,0.00,,,0.00,755.000000,,2013-12-05 21:44:00,
2013-12-05 13:53:00,45.0,11.0,30.02,NNE,13,5.0,13.0,25,0.00,,,0.00,755.000000,,2013-12-05 21:53:00,
2013-12-05 14:23:00,47.0,12.0,30.00,NNW,347,4.0,12.0,24,0.00,,,0.00,662.000000,,2013-12-05 22:23:00,
2013-12-05 14:34:00,47.0,12.0,30.00,NNW,347,4.0,12.0,24,0.00,,,0.00,662.000000,,2013-12-05 22:34:00,
2013-12-05 14:42:00,47.0,12.0,30.00,NNW,347,4.0,12.0,24,0.00,,,0.00,662.000000,,2013-12-05 22:42:00,
2013-12-05 14:52:00,47.0,12.0,30.00,NNW,347,4.0,12.0,24,0.00,,,0.00,662.000000,,2013-12-05 22:52:00,
2013-12-05 15:22:00,47.0,13.0,30.00,East,81,5.0,12.0,25,0.00,,,0.00,432.000000,,2013-12-05 23:22:00,
2013-12-05 15:33:00,47.0,13.0,30.00,East,81,5.0,12.0,25,0.00,,,0.00,432.000000,,2013-12-05 23:33:00,
2013-12-05 15:43:00,47.0,13.0,30.00,East,81,5.0,12.0,25,0.00,,,0.00,432.000000,,2013-12-05 23:43:00,
2013-12-05 15:53:00,47.0,13.0,30.00,East,81,5.0,12.0,25,0.00,,,0.00,432.000000,,2013-12-05 23:53:00,
2013-12-05 16:22:00,45.0,13.0,30.01,NE,44,3.0,9.0,27,0.00,,,0.00,217.000000,,2013-12-06 00:22:00,
2013-12-05 16:32:00,45.0,13.0,30.01,NE,44,3.0,9.0,27,0.00,,,0.00,217.000000,,2013-12-06 00:32:00,
2013-12-05 16:42:00,45.0,13.0,30.01,NE,44,3.0,9.0,27,0.00,,,0.00,217.000000,,2013-12-06 00:42:00,
2013-12-05 16:52:00,45.0,13.0,30.01,NE,44,3.0,9.0,27,0.00,,,0.00,217.000000,,2013-12-06 00:52:00,
2013-12-05 17:21:00,37.0,11.0,30.02,ENE,58,4.0,9.0,34,0.00,,,0.00,35.000000,,2013-12-06 01:21:00,
2013-12-05 17:32:00,37.0,11.0,30.02,ENE,58,4.0,9.0,34,0.00,,,0.00,35.000000,,2013-12-06 01:32:00,
2013-12-05 17:42:00,37.0,11.0,30.02,ENE,58,4.0,9.0,34,0.00,,,0.00,35.000000,,2013-12-06 01:42:00,
2013-12-05 17:52:00,37.0,11.0,30.02,ENE,58,4.0,9.0,34,0.00,,,0.00,35.000000,,2013-12-06 01:52:00,
2013-12-05 18:22:00,35.0,14.0,30.02,South,169,4.0,6.0,42,0.00,,,0.00,0.000000,,2013-12-06 02:22:00,
2013-12-05 18:32:00,35.0,14.0,30.02,South,169,4.0,6.0,42,0.00,,,0.00,0.000000,,2013-12-06 02:32:00,
2013-12-05 18:42:00,35.0,14.0,30.02,South,169,4.0,6.0,42,0.00,,,0.00,0.000000,,2013-12-06 02:42:00,
2013-12-05 18:52:00,35.0,14.0,30.02,South,169,4.0,6.0,42,0.00,,,0.00,0.000000,,2013-12-06 02:52:00,
2013-12-05 19:21:00,34.0,13.0,30.06,SSE,162,5.0,6.0,42,0.00,,,0.00,0.000000,,2013-12-06 03:21:00,
2013-12-05 19:34:00,34.0,13.0,30.06,SSE,162,5.0,6.0,42,0.00,,,0.00,0.000000,,2013-12-06 03:34:00,
2013-12-05 19:43:00,34.0,13.0,30.06,SSE,162,5.0,6.0,42,0.00,,,0.00,0.000000,,2013-12-06 03:43:00,
2013-12-05 19:53:00,34.0,13.0,30.06,SSE,162,5.0,6.0,42,0.00,,,0.00,0.000000,,2013-12-06 03:53:00,
2013-12-05 20:23:00,34.0,14.0,30.06,South,183,3.0,7.0,43,0.00,,,0.00,0.000000,,2013-12-06 04:23:00,
2013-12-05 20:33:00,34.0,14.0,30.06,South,183,3.0,7.0,43,0.00,,,0.00,0.000000,,2013-12-06 04:33:00,
2013-12-05 20:43:00,34.0,14.0,30.06,South,183,3.0,7.0,43,0.00,,,0.00,0.000000,,2013-12-06 04:43:00,
2013-12-05 20:53:00,34.0,14.0,30.06,South,183,3.0,7.0,43,0.00,,,0.00,0.000000,,2013-12-06 04:53:00,
2013-12-05 21:22:00,34.0,20.0,30.08,SSE,162,4.0,6.0,55,0.00,,,0.00,0.000000,,2013-12-06 05:22:00,
2013-12-05 21:33:00,34.0,20.0,30.08,SSE,162,4.0,6.0,55,0.00,,,0.00,0.000000,,2013-12-06 05:33:00,
2013-12-05 21:43:00,34.0,20.0,30.08,SSE,162,4.0,6.0,55,0.00,,,0.00,0.000000,,2013-12-06 05:43:00,
2013-12-05 21:52:00,34.0,20.0,30.08,SSE,162,4.0,6.0,55,0.00,,,0.00,0.000000,,2013-12-06 05:52:00,
2013-12-05 22:22:00,33.0,18.0,30.09,SSE,159,4.0,6.0,54,0.00,,,0.00,0.000000,,2013-12-06 06:22:00,
2013-12-05 22:32:00,33.0,18.0,30.09,SSE,159,4.0,6.0,54,0.00,,,0.00,0.000000,,2013-12-06 06:32:00,
2013-12-05 22:42:00,33.0,18.0,30.09,SSE,159,4.0,6.0,54,0.00,,,0.00,0.000000,,2013-12-06 06:42:00,
2013-12-05 22:52:00,33.0,18.0,30.09,SSE,159,4.0,6.0,54,0.00,,,0.00,0.000000,,2013-12-06 06:52:00,
2013-12-05 23:22:00,34.0,21.0,30.10,SE,132,5.0,6.0,59,0.00,,,0.00,0.000000,,2013-12-06 07:22:00,
2013-12-05 23:32:00,34.0,21.0,30.10,SE,132,5.0,6.0,59,0.00,,,0.00,0.000000,,2013-12-06 07:32:00,
2013-12-05 23:42:00,34.0,21.0,30.10,SE,132,5.0,6.0,59,0.00,,,0.00,0.000000,,2013-12-06 07:42:00,
2013-12-05 23:52:00,34.0,21.0,30.10,SE,132,5.0,6.0,59,0.00,,,0.00,0.000000,,2013-12-06 07:52:00,